Location: Fort Hays State University
(38.8712°N, 99.3432°W)
Time: 01:39:42
(UTC-05:00)

Cosmos 2279 Rocket - Visible Passes

Search period start: 31 March 2015 00:00
Search period end: 10 April 2015 00:00
Orbit: 964 x 980 km, 83.0° (Epoch: 28 March)

Date Brightness Start Highest point End Pass type
(mag) Time Alt. Az. Time Alt. Az. Time Alt. Az.
31 Mar 6.5 01:23:58 10° NNW 01:24:43 13° NW 01:24:43 13° NW visible
01 Apr 5.8 00:02:17 10° N 00:04:33 24° N 00:04:33 24° N visible
01 Apr 6.0 22:42:51 10° NNE 22:44:24 15° NE 22:44:24 15° NE visible
02 Apr 5.9 00:26:45 10° NNW 00:29:00 23° NNW 00:29:00 23° NNW visible
02 Apr 5.6 23:06:16 10° NNE 23:08:52 22° NNE 23:08:52 22° NNE visible
03 Apr 6.2 00:51:35 10° NNW 00:53:29 19° NW 00:53:29 19° NW visible
03 Apr 5.4 23:30:15 10° N 23:33:21 30° NNE 23:33:21 30° NNE visible
04 Apr 6.5 01:17:01 10° NW 01:17:57 13° NW 01:17:57 13° NW visible
04 Apr 5.9 22:11:23 10° NE 22:13:14 14° NE 22:13:14 14° NE visible
04 Apr 5.4 23:54:35 10° N 23:57:51 33° NNW 23:57:51 33° NNW visible
05 Apr 5.4 22:34:26 10° NNE 22:37:45 23° NE 22:37:45 23° NE visible
06 Apr 5.7 00:19:15 10° NNW 00:22:21 28° NW 00:22:21 28° NW visible
06 Apr 4.9 22:58:15 10° N 23:02:16 36° NNE 23:02:16 36° NNE visible
07 Apr 6.1 00:44:25 10° NW 00:46:53 19° NW 00:46:53 19° NW visible
07 Apr 5.9 21:40:22 10° NE 21:42:12 12° ENE 21:42:12 12° ENE visible
07 Apr 4.7 23:22:28 10° N 23:26:48 48° N 23:26:48 48° N visible
08 Apr 6.5 01:10:52 10° WNW 01:11:25 11° WNW 01:11:25 11° WNW visible
08 Apr 5.3 22:02:41 10° NNE 22:06:45 22° ENE 22:06:45 22° ENE visible
08 Apr 5.0 23:47:01 10° NNW 23:51:22 42° NW 23:51:22 42° NW visible
09 Apr 4.7 22:26:19 10° N 22:31:20 38° ENE 22:31:20 38° ENE visible
